TimeEET,TemperatureF,Dew PointF,Humidity,Sea Level PressureIn,VisibilityMPH,Wind Direction,Wind SpeedMPH,Gust SpeedMPH,PrecipitationIn,Events,Conditions,WindDirDegrees,DateUTC
12:50 AM,46.4,35.6,66,30.01,6.2,NNW,19.6,33.4,N/A,,Mostly Cloudy,340,2012-12-22 22:50:00
1:50 AM,46.4,35.6,66,30.01,6.2,NNW,17.3,31.1,N/A,,Mostly Cloudy,340,2012-12-22 23:50:00
2:50 AM,46.4,35.6,66,30.04,6.2,NNW,16.1,27.6,N/A,,Mostly Cloudy,340,2012-12-23 00:50:00
3:50 AM,46.4,33.8,62,30.04,6.2,NNW,18.4,31.1,N/A,,Scattered Clouds,340,2012-12-23 01:50:00
5:20 AM,46.4,33.8,62,30.01,6.2,NNW,20.7,40.3,N/A,,Scattered Clouds,340,2012-12-23 03:20:00
5:50 AM,46.4,32.0,57,30.01,6.2,North,19.6,34.5,N/A,,Scattered Clouds,350,2012-12-23 03:50:00
6:20 AM,46.4,32.0,57,30.04,6.2,NNW,17.3,31.1,N/A,,Scattered Clouds,340,2012-12-23 04:20:00
6:50 AM,46.4,32.0,57,30.04,6.2,North,17.3,28.8,N/A,,Scattered Clouds,350,2012-12-23 04:50:00
7:20 AM,46.4,32.0,57,30.06,6.2,North,17.3,28.8,N/A,,Scattered Clouds,350,2012-12-23 05:20:00
7:50 AM,46.4,32.0,57,30.06,6.2,North,13.8,34.5,N/A,,Scattered Clouds,350,2012-12-23 05:50:00
8:20 AM,44.6,33.8,66,30.06,6.2,North,13.8,26.5,N/A,,Scattered Clouds,350,2012-12-23 06:20:00
8:50 AM,46.4,32.0,57,30.06,6.2,North,13.8,25.3,N/A,,Scattered Clouds,350,2012-12-23 06:50:00
9:20 AM,46.4,33.8,62,30.06,6.2,North,13.8,28.8,N/A,,Scattered Clouds,350,2012-12-23 07:20:00
9:50 AM,46.4,33.8,62,30.09,6.2,North,17.3,28.8,N/A,,Scattered Clouds,350,2012-12-23 07:50:00
10:20 AM,48.2,33.8,58,30.09,6.2,North,17.3,31.1,N/A,,Scattered Clouds,350,2012-12-23 08:20:00
10:50 AM,48.2,33.8,58,30.09,6.2,North,15.0,26.5,N/A,,Scattered Clouds,350,2012-12-23 08:50:00
11:20 AM,48.2,33.8,58,30.09,6.2,North,19.6,31.1,N/A,,Partly Cloudy,350,2012-12-23 09:20:00
11:50 AM,50.0,35.6,58,30.06,6.2,NNW,17.3,28.8,N/A,,Partly Cloudy,340,2012-12-23 09:50:00
12:20 PM,50.0,35.6,58,30.06,6.2,NNW,20.7,-,N/A,,Partly Cloudy,340,2012-12-23 10:20:00
12:50 PM,50.0,35.6,58,30.06,6.2,NNW,19.6,-,N/A,,Partly Cloudy,340,2012-12-23 10:50:00
1:20 PM,50.0,35.6,58,30.06,6.2,NNW,18.4,29.9,N/A,,Partly Cloudy,340,2012-12-23 11:20:00
1:50 PM,50.0,33.8,54,30.06,6.2,North,17.3,28.8,N/A,,Partly Cloudy,350,2012-12-23 11:50:00
2:20 PM,50.0,33.8,54,30.06,6.2,North,18.4,-,N/A,,Partly Cloudy,350,2012-12-23 12:20:00
2:50 PM,50.0,33.8,54,30.06,6.2,North,15.0,26.5,N/A,,Partly Cloudy,350,2012-12-23 12:50:00
3:20 PM,48.2,33.8,58,30.06,6.2,North,15.0,-,N/A,,Partly Cloudy,350,2012-12-23 13:20:00
3:50 PM,48.2,33.8,58,30.06,6.2,NNW,13.8,-,N/A,,Scattered Clouds,340,2012-12-23 13:50:00
4:20 PM,48.2,33.8,58,30.06,6.2,NNW,13.8,25.3,N/A,,Partly Cloudy,340,2012-12-23 14:20:00
4:50 PM,46.4,33.8,62,30.09,6.2,NNW,12.7,-,N/A,,Partly Cloudy,340,2012-12-23 14:50:00
5:50 PM,46.4,33.8,62,30.09,6.2,NNW,9.2,-,N/A,,Partly Cloudy,340,2012-12-23 15:50:00
6:20 PM,46.4,33.8,62,30.09,6.2,NNW,10.4,-,N/A,,Partly Cloudy,330,2012-12-23 16:20:00
6:50 PM,46.4,33.8,62,30.09,6.2,NNW,8.1,-,N/A,,Partly Cloudy,340,2012-12-23 16:50:00
7:20 PM,44.6,32.0,61,30.12,6.2,NW,6.9,-,N/A,,Partly Cloudy,320,2012-12-23 17:20:00
7:50 PM,44.6,32.0,61,30.12,6.2,NW,6.9,-,N/A,,Partly Cloudy,320,2012-12-23 17:50:00
8:20 PM,44.6,32.0,61,30.12,6.2,NW,6.9,-,N/A,,Partly Cloudy,320,2012-12-23 18:20:00
8:50 PM,44.6,33.8,66,30.12,6.2,NW,10.4,-,N/A,,Partly Cloudy,320,2012-12-23 18:50:00
9:20 PM,46.4,32.0,57,30.12,6.2,NW,10.4,-,N/A,,Partly Cloudy,310,2012-12-23 19:20:00
9:50 PM,46.4,32.0,57,30.12,6.2,NW,10.4,-,N/A,,Partly Cloudy,320,2012-12-23 19:50:00
10:20 PM,46.4,33.8,62,30.15,6.2,NW,11.5,-,N/A,,Partly Cloudy,320,2012-12-23 20:20:00
10:50 PM,46.4,32.0,57,30.15,6.2,NW,12.7,-,N/A,,Partly Cloudy,320,2012-12-23 20:50:00
11:50 PM,44.6,32.0,61,30.15,6.2,NNW,10.4,-,N/A,,Partly Cloudy,330,2012-12-23 21:50:00